VE1RCI-13 Weather Reports


time (UTC)temp
C
wind
direction
speed
KPH
gust
KPH
rain 1hr
cm
rain 24hr
cm
rain mn
cm
humidity
%
barometer
mb
20260502183045 17 0.0 0.0 0.00 0.00 0.00 53 1011.5
20260502182032 17 0.0 0.0 0.00 0.00 0.00 51 1011.6
20260502181020 18 0.0 0.0 0.00 0.00 0.00 50 1011.6
20260502163831 16 0.0 0.0 0.00 0.00 0.00 55 1012.4
20260502162819 16 0.0 0.0 0.00 0.00 0.00 57 1012.5
20260502161807 16 0.0 0.0 0.00 0.00 0.00 58 1012.4
20260502160755 15 0.0 0.0 0.00 0.00 0.00 59 1012.4
20260502151654 14 0.0 0.0 0.00 0.00 0.00 62 1012.6
20260502150642 13 0.0 0.0 0.00 0.00 0.00 63 1012.7
20260502130416 11 0.0 0.0 0.00 0.00 0.00 72 1012.0
20260502123340 11 0.0 0.0 0.00 0.00 0.00 75 1012.0
20260502122327 11 0.0 0.0 0.00 0.00 0.00 75 1011.9
20260502121315 11 0.0 0.0 0.00 0.00 0.00 75 1011.7
20260502120303 10 0.0 0.0 0.00 0.00 0.00 76 1011.4
20260502115251 10 0.0 0.0 0.00 0.00 0.00 75 1011.8
20260502114239 10 0.0 0.0 0.00 0.00 0.00 75 1011.4
20260502113227 10 0.0 0.0 0.00 0.00 0.00 75 1011.5
20260502112215 10 0.0 0.0 0.00 0.00 0.00 76 1011.3
20260502111202 10 0.0 0.0 0.00 0.00 0.00 76 1011.4
20260502110150 10 0.0 0.0 0.00 0.00 0.00 76 1011.3
20260502105138 9 0.0 0.0 0.00 0.00 0.00 76 1011.2
20260502104126 9 0.0 0.0 0.00 0.00 0.00 76 1011.1
20260502103114 9 0.0 0.0 0.00 0.00 0.00 76 1010.7
20260502102102 9 0.0 0.0 0.00 0.00 0.00 76 1010.7
20260502101049 8 0.0 0.0 0.00 0.00 0.00 75 1010.3
20260502090936 8 0.0 0.0 0.00 0.00 0.00 75 1009.6
20260502070710 10 0.0 0.0 0.00 0.00 0.00 76 1008.6
20260502065658 10 0.0 0.0 0.00 0.00 0.00 76 1008.6
20260502064646 10 0.0 0.0 0.00 0.00 0.00 76 1008.3
20260502063634 10 0.0 0.0 0.00 0.00 0.00 76 1008.3
20260502062622 10 0.0 0.0 0.00 0.00 0.00 77 1008.2
20260502061609 10 0.0 0.0 0.00 0.00 0.00 77 1008.1
20260502060557 10 0.0 0.0 0.00 0.00 0.00 77 1008.0
20260502055545 10 0.0 0.0 0.00 0.00 0.00 77 1007.9
20260502054533 11 0.0 0.0 0.00 0.00 0.00 77 1007.8
20260502053520 11 0.0 0.0 0.00 0.00 0.00 77 1007.8
20260502052508 11 0.0 0.0 0.00 0.00 0.00 78 1007.6
20260502051456 11 0.0 0.0 0.00 0.00 0.00 78 1007.6
20260502050444 11 0.0 0.0 0.00 0.00 0.00 78 1007.6
20260502045432 11 0.0 0.0 0.00 0.00 0.00 78 1007.4
20260502044420 11 0.0 0.0 0.00 0.00 0.00 78 1007.3
20260502043407 11 0.0 0.0 0.00 0.00 0.00 78 1007.1
20260502042355 11 0.0 0.0 0.00 0.00 0.00 79 1007.1
20260502041343 11 0.0 0.0 0.00 0.00 0.00 79 1007.0
20260502040331 11 0.0 0.0 0.00 0.00 0.00 79 1006.8
20260502035319 11 0.0 0.0 0.00 0.00 0.00 79 1006.7
20260502034307 11 0.0 0.0 0.00 0.00 0.00 79 1006.7
20260502033255 11 0.0 0.0 0.00 0.00 0.00 80 1006.6
20260502032242 11 0.0 0.0 0.00 0.00 0.00 79 1006.5
20260502031230 11 0.0 0.0 0.00 0.00 0.00 79 1006.6
20260502030218 11 0.0 0.0 0.00 0.00 0.00 79 1006.5
20260502025206 11 0.0 0.0 0.00 0.00 0.00 79 1006.6
20260502024154 11 0.0 0.0 0.00 0.00 0.00 79 1006.5
20260502023142 11 0.0 0.0 0.00 0.00 0.00 79 1006.5
20260502022130 11 0.0 0.0 0.00 0.00 0.00 79 1006.5
20260502021117 11 0.0 0.0 0.00 0.00 0.00 79 1006.3
20260502020105 11 0.0 0.0 0.00 0.00 0.00 79 1006.3
20260502015053 11 0.0 0.0 0.00 0.00 0.00 79 1006.1
20260502014041 11 0.0 0.0 0.00 0.00 0.00 79 1006.1
20260502013029 11 0.0 0.0 0.00 0.00 0.00 79 1005.9
20260502012016 11 0.0 0.0 0.00 0.00 0.00 79 1005.8
20260502011004 11 0.0 0.0 0.00 0.00 0.00 79 1006.0
20260502005952 11 0.0 0.0 0.00 0.00 0.00 80 1005.9
20260502004940 11 0.0 0.0 0.00 0.00 0.00 79 1005.8
20260502003928 11 0.0 0.0 0.00 0.00 0.00 79 1005.6
20260502002916 11 0.0 0.0 0.00 0.00 0.00 80 1005.2
20260502001904 12 0.0 0.0 0.00 0.00 0.00 80 1005.2
20260502000851 12 0.0 0.0 0.00 0.00 0.00 80 1005.1
20260501235839 11 0.0 0.0 0.00 0.00 0.00 80 1004.6
20260501234827 12 0.0 0.0 0.00 0.00 0.00 80 1004.6
20260501233814 11 0.0 0.0 0.00 0.00 0.00 80 1004.4
20260501232802 12 0.0 0.0 0.00 0.00 0.00 80 1004.4
20260501231750 12 0.0 0.0 0.00 0.00 0.00 80 1004.3
20260501230738 11 0.0 0.0 0.00 0.00 0.00 80 1004.0
20260501225726 12 0.0 0.0 0.00 0.00 0.00 80 1004.0
20260501224714 11 0.0 0.0 0.00 0.00 0.00 80 1003.8
20260501223702 11 0.0 0.0 0.00 0.00 0.00 80 1003.4
20260501222649 11 0.0 0.0 0.00 0.00 0.00 80 1003.9
20260501221637 11 0.0 0.0 0.00 0.00 0.00 80 1003.6
20260501220625 11 0.0 0.0 0.00 0.00 0.00 80 1003.3
20260501215613 11 0.0 0.0 0.00 0.00 0.00 81 1003.6
20260501214600 11 0.0 0.0 0.00 0.00 0.00 81 1003.3
20260501213548 11 0.0 0.0 0.00 0.00 0.00 81 1003.3
20260501212536 11 0.0 0.0 0.00 0.00 0.00 81 1003.2
20260501211524 11 0.0 0.0 0.00 0.00 0.00 81 1003.2
20260501210512 11 0.0 0.0 0.00 0.00 0.00 82 1003.0
20260501205459 11 0.0 0.0 0.00 0.00 0.00 81 1003.0
20260501204447 11 0.0 0.0 0.00 0.00 0.00 81 1003.4
20260501203435 11 0.0 0.0 0.00 0.00 0.00 82 1003.7
20260501202423 11 0.0 0.0 0.00 0.00 0.00 82 1003.4
20260501201411 11 0.0 0.0 0.00 0.00 0.00 82 1003.3
20260501200358 11 0.0 0.0 0.00 0.00 0.00 82 1003.2
20260501195346 11 0.0 0.0 0.00 0.00 0.00 82 1002.9
20260501194334 11 0.0 0.0 0.00 0.00 0.00 82 1002.9
20260501193322 11 0.0 0.0 0.00 0.00 0.00 83 1003.0
20260501192310 11 0.0 0.0 0.00 0.00 0.00 83 1003.1
20260501191258 11 0.0 0.0 0.00 0.00 0.00 83 1003.1
20260501190245 11 0.0 0.0 0.00 0.00 0.00 83 1003.2
20260501185233 11 0.0 0.0 0.00 0.00 0.00 83 1003.4
20260501184221 11 0.0 0.0 0.00 0.00 0.00 83 1003.3